Location: Newark
(41.1142°N, 73.9831°W)
Time: 23:36:40
(UTC+00:00)

N. Korean satellite - Pass Details

Date: 30 September 2019
Orbit: 455 x 508 km, 97.2° (Epoch: 20 October)

Event Time Altitude Azimuth Distance (km) Brightness Sun altitude
Rises 10:10:10 0° 26° (NNE) 2,486 10.6 -8.6°
Reaches altitude 10° 10:12:32 10° 42° (NE) 1,612 9.9 -8.1°
Maximum altitude 10:15:18 22° 95° (E) 1,048 9.5 -7.6°
Drops below altitude 10° 10:18:06 10° 149° (SSE) 1,617 9.6 -7.1°
Sets 10:20:27 0° 165° (SSE) 2,497 10.4 -6.6°
